Waarnemingen

Advertentie
Mijn weer
Caen, Frankrijk (7027): temperatuur & dauwpunt: 13.06.2019 07:00:00 - 19.06.2019 07:00:00 (CEST)Caen, Frankrijk (7027): temperatuur 5cm: 13.06.2019 07:00:00 - 19.06.2019 07:00:00 (CEST)Caen, Frankrijk (7027): temperatuur -20cm & temperatuur -100cm: 13.06.2019 07:00:00 - 19.06.2019 07:00:00 (CEST)Caen, Frankrijk (7027): windsnelheid & windstoten: 13.06.2019 07:00:00 - 19.06.2019 07:00:00 (CEST)Caen, Frankrijk (7027): windrichting: 13.06.2019 07:00:00 - 19.06.2019 07:00:00 (CEST)Caen, Frankrijk (7027): luchtdruk: 13.06.2019 07:00:00 - 19.06.2019 07:00:00 (CEST)Caen, Frankrijk (7027): zicht: 13.06.2019 07:00:00 - 19.06.2019 07:00:00 (CEST)Caen, Frankrijk (7027): Zonneschijnduur: 13.06.2019 07:00:00 - 19.06.2019 07:00:00 (CEST)Caen, Frankrijk (7027): neerslag: 13.06.2019 07:00:00 - 19.06.2019 07:00:00 (CEST)
Datum & Tijd tt [°C] td [°C] tt 5cm [°C] tt -20cm [°C] tt -100cm [°C] ff [km/u] ff [kn] fx [km/u] fx [kn] dd ppp [hPa] vv [km] sd [min] rr [mm]
19.06.2019 07:00:00 14,1 13,8 13,7 16,9 14,8 9 5 20 11 WZW 1007,2 4,6 0 0,0
19.06.2019 06:00:00 14,1 13,9 13,8 16,9 14,8 9 5 44 24 WNW 1007,0 3,4 0 7,3
19.06.2019 05:00:00 14,2 14,0 13,0 16,9 14,7 19 10 46 25 WZW 1007,1 2,5 0 0,8
19.06.2019 04:00:00 14,1 13,9 13,5 17,0 14,8 8 4 13 7 Z 1007,3 1,2 0 0,0
19.06.2019 03:00:00 13,6 13,4 12,3 17,0 14,8 5 3 10 5 NW 1007,0 3,1 0 0,0
19.06.2019 02:00:00 13,8 13,5 12,8 17,0 14,7 5 3 22 12 ZW 1007,0 3,0 0 0,0
19.06.2019 01:00:00 14,8 14,3 14,1 17,0 14,7 8 5 24 13 W 1007,6 4,6 0 2,6
19.06.2019 00:00:00 14,6 14,3 14,2 16,9 14,7 13 7 32 18 WNW 1008,2 6 0 0,0
18.06.2019 23:00:00 14,9 14,1 14,5 16,9 14,7 7 4 19 10 N 1009,1 9 0 0,0
18.06.2019 22:00:00 17,3 16,0 16,3 16,9 14,7 10 6 28 15 WNW 1008,6 17 28 0,4
18.06.2019 21:00:00 16,6 15,5 16,2 16,8 14,7 20 11 31 17 WNW 1008,8 13 0 0,0
18.06.2019 20:00:00 19,7 16,2 20,8 16,8 14,7 12 6 18 10 NW 1008,5 31 25 0,0
18.06.2019 19:00:00 20,9 15,7 23,2 16,7 14,7 10 6 16 9 N 1009,2 8 16 0,0
18.06.2019 18:00:00 20,5 15,9 24,0 16,7 14,7 9 5 17 9 NNO 1009,8 18 41 0,0
18.06.2019 17:00:00 19,0 15,3 20,8 16,6 14,7 7 4 19 11 NO 1010,5 23 0 0,0
18.06.2019 16:00:00 18,4 14,7 21,8 16,6 14,7 12 6 29 16 NNO 1010,8 24 13 0,0
18.06.2019 15:00:00 17,2 14,7 19,2 16,5 14,7 20 11 27 15 NW 1012,2 25 0 0,0
18.06.2019 14:00:00 18,1 14,6 19,7 16,5 14,7 13 7 21 12 NNW 1012,5 20 0 0,0
18.06.2019 13:00:00 21,6 15,7 22,5 16,5 14,7 8 5 17 9 ONO 1012,0 20 21 0,0
18.06.2019 12:00:00 21,5 14,9 25,5 16,5 14,7 6 3 18 10 ONO 1012,5 23 44 0,0
18.06.2019 11:00:00 19,1 13,9 20,6 16,5 14,6 8 5 16 9 O 1012,9 19 33 0,0
18.06.2019 10:00:00 17,0 12,7 16,7 16,5 14,7 10 6 19 10 OZO 1013,6 24 8 0,0
18.06.2019 09:00:00 15,6 11,8 16,4 16,6 14,7 13 7 19 11 O 1014,2 27 14 0,0
18.06.2019 08:00:00 14,7 11,8 12,5 16,6 14,6 6 4 11 6 ONO 1014,7 19 17 0,2
18.06.2019 07:00:00 12,9 11,1 9,7 16,7 14,7 5 3 8 5 NNO 1015,0 23 3 0,0
18.06.2019 06:00:00 12,4 11,6 9,7 16,7 14,7 3 2 5 3 NNO 1015,0 20 0 0,0
18.06.2019 05:00:00 12,6 12,0 10,4 16,7 14,6 3 2 8 4 O 1015,4 13 0 0,0
18.06.2019 04:00:00 12,0 11,7 9,4 16,8 14,6 3 1 6 4 NNO 1015,9 15 0 0,0
18.06.2019 03:00:00 11,5 11,0 9,2 16,8 14,6 3 2 4 2 N 1016,4 16 0 0,0
18.06.2019 02:00:00 12,0 11,4 10,1 16,8 14,6 4 2 9 5 WNW 1017,1 17 0 0,0
18.06.2019 01:00:00 12,3 11,5 11,0 16,8 14,6 6 3 10 5 NNW 1017,5 20 0 0,0
18.06.2019 00:00:00 12,7 11,9 10,6 16,8 14,6 8 4 9 5 NW 1017,8 22 0 0,0
17.06.2019 23:00:00 14,1 11,6 11,6 16,7 14,6 5 3 9 5 N 1017,5 27 0 0,0
17.06.2019 22:00:00 15,2 11,8 14,3 16,6 14,6 6 3 19 10 NNO 1017,5 29 17 0,0
17.06.2019 21:00:00 16,7 12,4 17,4 16,6 14,6 13 7 19 10 N 1017,2 37 60 0,0
17.06.2019 20:00:00 18,1 12,5 21,4 16,5 14,6 14 8 23 12 N 1017,3 34 60 0,0
17.06.2019 19:00:00 19,3 13,5 22,5 16,4 14,6 16 8 22 12 NNO 1017,4 37 58 0,0
17.06.2019 18:00:00 20,4 13,8 23,8 16,3 14,6 13 7 22 12 N 1017,4 20 52 0,0
17.06.2019 17:00:00 20,1 13,3 23,4 16,2 14,6 13 7 25 13 N 1018,0 20 41 0,0
17.06.2019 16:00:00 20,7 14,3 23,8 16,1 14,6 16 9 25 14 N 1018,1 35 53 0,0
17.06.2019 15:00:00 20,1 13,8 23,5 16,0 14,6 10 5 21 12 NNO 1018,6 38 40 0,0
17.06.2019 14:00:00 21,5 13,4 23,8 15,9 14,6 6 4 21 11 W 1018,6 34 34 0,0
17.06.2019 13:00:00 20,9 13,1 23,0 15,9 14,6 6 3 17 9 ZW 1019,0 37 49 0,0
17.06.2019 12:00:00 19,5 11,5 27,1 15,9 14,6 3 2 16 9 ONO 1019,6 31 60 0,0
17.06.2019 11:00:00 18,0 11,5 24,1 15,9 14,6 2 1 16 9 ZW 1020,0 20 60 0,0
17.06.2019 10:00:00 16,6 11,1 21,9 16,0 14,6 7 4 18 10 WZW 1020,3 37 60 0,0
17.06.2019 09:00:00 15,2 12,0 13,5 16,1 14,6 8 4 15 8 WZW 1020,6 14 53 0,0
17.06.2019 08:00:00 13,8 11,7 9,9 16,1 14,6 10 6 16 9 W 1020,4 16 53 0,0
17.06.2019 07:00:00 10,7 9,8 9,8 16,1 14,6 7 4 10 5 ZW 1020,1 19 11 0,0
17.06.2019 06:00:00 10,7 9,9 9,4 16,2 14,6 3 2 14 7 Z 1020,1 18 0 0,0
17.06.2019 05:00:00 10,9 10,1 8,7 16,2 14,6 10 5 14 8 ZW 1020,0 19 0 0,0
17.06.2019 04:00:00 10,4 9,5 8,0 16,3 14,6 11 6 14 8 ZW 1020,1 22 0 0,0
17.06.2019 03:00:00 10,6 9,8 8,7 16,3 14,6 11 6 13 7 ZZW 1020,3 19 0 0,0
17.06.2019 02:00:00 10,7 10,1 6,7 16,3 14,6 9 5 10 5 Z 1020,5 22 0 0,0
17.06.2019 01:00:00 10,9 10,0 7,2 16,3 14,6 4 2 12 7 W 1020,6 26 0 0,0
17.06.2019 00:00:00 12,3 10,7 10,0 16,3 14,6 11 6 14 8 W 1020,6 30 0 0,0
16.06.2019 23:00:00 13,4 11,3 10,4 16,3 14,6 8 4 11 6 WZW 1020,4 29 0 0,0
16.06.2019 22:00:00 16,3 13,4 12,0 16,2 14,6 0 0 9 5 N 1020,0 33 18 0,0
16.06.2019 21:00:00 18,9 14,0 18,1 16,2 14,6 3 1 4 2 WNW 1019,9 36 4 0,0
16.06.2019 20:00:00 20,0 12,7 20,4 16,1 14,6 2 1 5 3 ZW 1019,9 34 9 0,0
16.06.2019 19:00:00 19,2 12,9 20,5 16,1 14,6 4 2 13 7 WZW 1019,9 40 0 0,0
16.06.2019 18:00:00 18,9 13,5 19,7 16,0 14,6 9 5 24 13 WZW 1020,0 57 0 0,0
16.06.2019 17:00:00 18,7 13,1 19,4 15,9 14,5 11 6 22 12 ZW 1020,2 41 0 0,0
16.06.2019 16:00:00 19,1 13,5 16,3 15,9 14,5 11 6 36 19 ZZW 1020,3 31 6 0,0
16.06.2019 15:00:00 19,6 12,8 20,3 15,8 14,5 19 10 35 19 ZW 1020,2 42 3 0,0
16.06.2019 14:00:00 20,6 13,8 21,1 15,8 14,5 19 11 34 18 ZW 1020,1 51 22 0,0
16.06.2019 13:00:00 18,8 12,1 20,8 15,7 14,5 25 13 38 20 ZW 1020,1 50 25 0,0
16.06.2019 12:00:00 18,7 12,4 21,3 15,8 14,5 22 12 43 23 ZW 1020,0 19 43 0,0
16.06.2019 11:00:00 17,8 12,7 18,9 15,8 14,5 25 13 42 23 WZW 1019,9 60 45 0,0
16.06.2019 10:00:00 16,6 13,9 16,2 15,8 14,5 21 11 41 22 ZW 1020,0 60 12 0,0
16.06.2019 09:00:00 15,3 12,6 13,9 15,9 14,5 20 11 36 19 ZZW 1019,6 39 5 0,0
16.06.2019 08:00:00 14,2 12,6 13,2 15,9 14,5 8 4 16 8 ZZW 1019,2 32 0 0,2
16.06.2019 07:00:00 13,1 12,0 11,2 15,9 14,5 7 4 16 8 Z 1018,9 29 8 0,0
16.06.2019 06:00:00 12,2 11,1 10,5 16,0 14,6 10 5 19 10 Z 1018,5 37 0 0,0
16.06.2019 05:00:00 12,8 11,5 10,2 16,0 14,5 13 7 23 12 ZW 1018,2 37 0 0,0
16.06.2019 04:00:00 12,6 11,2 11,4 16,0 14,5 13 7 24 13 ZW 1018,3 38 0 0,0
16.06.2019 03:00:00 13,2 11,6 12,2 16,0 14,5 16 9 30 16 ZW 1018,1 38 0 0,0
16.06.2019 02:00:00 14,6 12,3 13,8 16,0 14,5 18 10 33 18 ZZW 1017,6 37 0 0,0
16.06.2019 01:00:00 14,5 12,7 13,3 16,0 14,5 19 10 31 17 ZZW 1017,3 32 0 0,0
16.06.2019 00:00:00 14,4 12,8 13,2 16,0 14,5 18 10 35 19 ZZW 1017,1 49 0 0,0
15.06.2019 23:00:00 14,6 12,8 12,8 16,0 14,5 19 10 28 15 ZZW 1016,8 43 0 0,0
15.06.2019 22:00:00 14,3 12,7 12,8 16,0 14,5 13 7 27 15 ZZW 1016,4 44 2 0,0
15.06.2019 21:00:00 15,0 13,9 14,4 16,0 14,5 11 6 40 21 Z 1016,2 18 31 0,2
15.06.2019 20:00:00 16,5 14,3 15,7 16,0 14,5 21 11 46 25 Z 1015,9 13 34 0,0
15.06.2019 19:00:00 15,8 13,1 14,7 16,0 14,5 21 11 45 24 Z 1015,9 31 0 0,2
15.06.2019 18:00:00 17,9 11,7 16,4 15,9 14,5 23 12 36 20 ZZW 1015,3 47 3 0,0
15.06.2019 17:00:00 17,5 10,6 17,7 15,9 14,5 19 10 28 15 Z 1015,5 49 0 0,0
15.06.2019 16:00:00 17,6 11,2 17,5 15,9 14,5 15 8 35 19 ZZW 1015,5 60 0 0,0
15.06.2019 15:00:00 17,3 9,9 17,7 15,9 14,5 21 12 37 20 ZZW 1015,5 60 2 0,0
15.06.2019 14:00:00 17,8 11,6 16,5 15,8 14,5 21 11 34 18 ZZW 1015,6 60 0 0,0
15.06.2019 13:00:00 16,5 9,9 17,0 15,8 14,5 23 12 36 20 ZZW 1015,4 48 18 0,0
15.06.2019 12:00:00 16,4 10,3 17,1 15,8 14,5 20 11 35 19 ZW 1015,1 53 18 0,0
15.06.2019 11:00:00 16,1 10,4 18,8 15,8 14,4 22 12 34 19 ZZW 1015,1 54 37 0,0
15.06.2019 10:00:00 16,1 11,3 15,6 15,9 14,5 20 11 32 17 ZW 1014,8 60 45 0,0
15.06.2019 09:00:00 14,0 11,3 15,0 15,9 14,5 16 9 27 14 ZW 1014,8 52 23 0,0
15.06.2019 08:00:00 13,4 11,1 12,3 16,0 14,5 15 8 23 12 ZZW 1014,3 21 58 0,0
15.06.2019 07:00:00 10,9 9,8 7,7 16,0 14,5 13 7 17 9 ZZW 1014,0 20 35 0,0
15.06.2019 06:00:00 9,6 8,8 7,8 16,0 14,5 10 5 18 10 ZW 1014,0 28 0 0,0
15.06.2019 05:00:00 10,5 9,4 9,1 16,0 14,5 11 6 22 12 ZW 1013,7 26 0 0,0
15.06.2019 04:00:00 10,9 10,1 9,1 16,1 14,5 11 6 15 8 ZW 1013,6 24 0 0,0
15.06.2019 03:00:00 11,6 10,7 9,6 16,1 14,5 9 5 11 6 WZW 1013,4 27 0 0,0
15.06.2019 02:00:00 12,5 11,7 11,3 16,1 14,5 8 5 10 5 W 1013,3 52 0 0,0
15.06.2019 01:00:00 13,1 12,2 12,3 16,0 14,5 6 3 9 5 W 1013,3 45 0 0,0
15.06.2019 00:00:00 13,7 12,3 12,9 16,0 14,5 7 4 9 5 W 1013,2 52 0 0,0
14.06.2019 23:00:00 13,5 11,4 12,2 16,0 14,5 8 5 16 8 NW 1013,2 46 0 0,0
14.06.2019 22:00:00 15,2 10,8 14,5 15,9 14,5 6 3 16 8 NNO 1012,9 60 23 0,0
14.06.2019 21:00:00 16,2 10,3 16,5 15,8 14,5 9 5 20 11 N 1012,5 59 20 0,0
14.06.2019 20:00:00 16,6 9,8 17,4 15,7 14,5 16 9 26 14 N 1012,1 58 1 0,0
14.06.2019 19:00:00 20,2 8,8 20,7 15,6 14,5 15 8 39 21 WZW 1011,3 60 29 0,0
14.06.2019 18:00:00 20,0 8,0 21,7 15,5 14,4 16 9 28 15 ZZW 1011,5 60 42 0,0
14.06.2019 17:00:00 20,8 8,1 22,4 15,4 14,5 21 11 32 17 ZZW 1012,0 60 54 0,0
14.06.2019 16:00:00 19,8 9,4 23,4 15,4 14,5 14 8 35 19 Z 1012,3 60 52 0,0
14.06.2019 15:00:00 19,6 10,0 20,4 15,3 14,4 22 12 31 17 Z 1012,9 60 33 0,0
14.06.2019 14:00:00 17,9 10,3 20,4 15,3 14,4 14 8 28 15 WZW 1013,1 60 7 0,0
14.06.2019 13:00:00 18,3 11,8 19,4 15,3 14,4 14 8 30 16 ZZW 1013,1 20 25 0,0
14.06.2019 12:00:00 17,4 10,3 19,9 15,3 14,4 18 10 31 17 ZW 1012,9 28 49 0,0
14.06.2019 11:00:00 16,5 9,9 21,1 15,4 14,5 21 12 32 18 ZZW 1012,9 27 60 0,0
14.06.2019 10:00:00 15,2 10,4 18,5 15,4 14,5 20 11 30 16 ZZW 1013,2 32 60 0,0
14.06.2019 09:00:00 13,5 11,0 15,0 15,5 14,5 19 10 29 16 ZZW 1012,9 1,4 60 0,0
14.06.2019 08:00:00 11,4 10,0 9,5 15,5 14,4 11 6 21 12 ZZW 1012,6 35 60 0,0
14.06.2019 07:00:00 9,3 8,7 6,1 15,6 14,5 11 6 16 9 Z 1012,5 35 34 0,0
14.06.2019 06:00:00 8,4 7,6 6,7 15,6 14,5 12 6 18 10 Z 1012,2 33 0 0,0
14.06.2019 05:00:00 8,9 8,3 5,5 15,7 14,5 12 7 16 9 ZZW 1011,9 45 0 0,0
14.06.2019 04:00:00 9,4 8,2 7,4 15,7 14,4 14 8 22 12 ZZW 1011,9 50 0 0,0
14.06.2019 03:00:00 8,9 8,1 5,1 15,7 14,4 14 7 17 9 Z 1011,9 56 0 0,0
14.06.2019 02:00:00 9,3 8,2 5,5 15,8 14,4 11 6 15 8 ZZW 1012,0 47 0 0,0
14.06.2019 01:00:00 9,8 8,7 6,2 15,8 14,4 8 5 14 8 ZW 1012,0 47 0 0,0
14.06.2019 00:00:00 10,8 9,2 7,6 15,8 14,5 11 6 14 7 ZZW 1011,8 44 0 0,0
13.06.2019 23:00:00 12,0 9,6 9,0 15,8 14,5 6 4 11 6 ZZW 1011,6 51 0 0,0
13.06.2019 22:00:00 12,9 10,1 9,6 15,7 14,4 8 4 15 8 ZW 1011,0 49 1 0,0
13.06.2019 21:00:00 15,3 10,5 15,3 15,7 14,4 11 6 23 12 ZW 1010,7 60 20 0,0
13.06.2019 20:00:00 15,6 10,4 15,8 15,6 14,4 14 7 29 16 WZW 1010,4 58 2 0,0
13.06.2019 19:00:00 17,0 9,9 17,6 15,6 14,4 22 12 39 21 WZW 1009,8 38 44 0,0
13.06.2019 18:00:00 16,8 11,3 15,4 15,6 14,5 21 11 34 19 ZW 1009,7 48 18 0,0
13.06.2019 17:00:00 14,9 9,7 15,0 15,5 14,4 23 12 41 22 WZW 1009,9 43 25 0,0
13.06.2019 16:00:00 15,3 11,1 13,8 15,5 14,5 23 12 44 24 ZW 1009,7 32 5 0,2
13.06.2019 15:00:00 16,5 9,9 19,6 15,5 14,4 32 17 51 27 ZW 1009,4 33 39 0,0
13.06.2019 14:00:00 15,9 12,1 13,3 15,5 14,4 18 10 43 23 ZZW 1009,5 39 14 0,0
13.06.2019 13:00:00 16,3 11,4 15,3 15,5 14,4 30 16 44 24 ZZW 1009,4 38 36 0,0
13.06.2019 12:00:00 13,6 11,1 12,8 15,5 14,4 25 13 40 21 ZW 1009,6 38 0 0,6
13.06.2019 11:00:00 12,9 11,8 11,9 15,5 14,4 17 9 31 17 ZW 1009,6 23 0 1,6
13.06.2019 10:00:00 14,2 11,0 14,2 15,6 14,4 21 11 31 17 ZZW 1009,3 49 8 0,0
13.06.2019 09:00:00 12,9 11,0 12,6 15,6 14,4 17 9 27 15 ZZW 1009,2 23 4 0,0
13.06.2019 08:00:00 11,8 10,4 11,4 15,7 14,4 12 7 20 11 Z 1009,0 19 0 0,0
13.06.2019 07:00:00 10,7 9,9 8,0 15,7 14,4 8 4 13 7 Z 1009,2 17 20 0,0

tt = temperatuur
td = dauwpunt
tt 5cm = temperatuur 5cm
tt -20cm = temperatuur -20cm
tt -100cm = temperatuur -100cm
ff = windsnelheid
fx = windstoten
dd = windrichting
ppp = luchtdruk
vv = zicht
sd = Zonneschijnduur
rr = neerslag

Weerstations in de omgeving